Location: Mascot Post Office (historical)
(40.2645°N, 99.5462°W)
Time: 02:43:25
(UTC+00:00)

Cosmos 1190 Rocket - Pass Details

Date: 14 July 2020
Orbit: 756 x 781 km, 74.1° (Epoch: 14 August)

Event Time Altitude Azimuth Distance (km) Brightness Sun altitude
Exits shadow 08:47:39 43° 251° (WSW) 1,060 4.3 -21.8°
Maximum altitude 08:48:49 52° 293° (WNW) 943 4.3 -21.7°
Drops below altitude 10° 08:53:57 10° 10° (N) 2,314 7.4 -21.2°
Sets 08:56:24 0° 15° (NNE) 3,248 8.6 -20.9°
